Location: Acton
(51.4942°N, 0.2232°W)
Time: 12:40:57
(UTC+00:00)

Okean 1-7 Rocket - Pass Details

Date: 17 January 2021
Orbit: 615 x 650 km, 82.5° (Epoch: 28 February)

Event Time Altitude Azimuth Distance (km) Brightness Sun altitude
Rises 18:08:33 0° 164° (SSE) 2,939 7.0 -15.6°
Reaches altitude 10° 18:10:56 10° 155° (SSE) 2,040 6.1 -15.9°
Maximum altitude 18:15:01 34° 90° (E) 1,064 4.2 -16.6°
Enters shadow 18:16:16 29° 58° (ENE) 1,192 4.5 -16.7°
